Date String (YYYY-MM-DD hh:mm:ss) UTC,Instrument flags,Ambient pressure (hPa),Sample flow (lpm),Bypass flow (lpm),Sample temperature (°C),Ambient temperature (°C),ASC tube jacket temperature (°C),LED temperature (°C),Box temperature (°C),Sample RH (%),Span deviation,Mass concentration (μg/m³),Mass concentration (μg/m³),Mass concentration (μg/m³)
DateTimeUTC,F1_M11,P_M11,Q1_M11,Q2_M11,T1_M11,T2_M11,T3_M11,T4_M11,T5_M11,U1_M11,ZSPAN_M11,X2_M11,X0_M11,X1_M11
2023-01-13 09:00:00,,0831.8,5.00,0.00,21.4,21.1,00.0,30.4,23.2,13.2,0000.6,0014.66,0020.27,0013.80
2023-01-13 09:01:00,,0831.7,5.00,0.00,21.6,22.2,00.0,30.4,23.5,13.0,0000.9,0014.45,0019.93,0013.58
2023-01-13 09:02:00,,0831.7,4.99,0.00,21.7,22.1,00.0,30.4,23.6,13.0,0001.0,0014.29,0020.06,0013.43
2023-01-13 09:03:00,,0831.7,5.00,0.00,21.7,21.6,00.0,30.5,23.5,12.9,0000.5,0014.14,0019.86,0013.25
2023-01-13 09:04:00,,0831.7,5.00,0.00,21.7,21.0,00.0,30.5,23.4,12.8,0000.2,0013.92,0019.60,0013.06
2023-01-13 09:05:00,,0831.7,5.01,0.00,21.7,20.7,00.0,30.5,23.3,12.8,0000.3,0013.73,0019.42,0012.88
2023-01-13 09:06:00,,0831.7,5.00,0.00,21.6,20.4,00.0,30.5,23.2,12.8,0000.6,0013.62,0019.44,0012.77
2023-01-13 09:07:00,,0831.7,5.00,0.00,21.6,20.1,00.0,30.5,23.2,12.8,0000.8,0013.49,0018.89,0012.63
2023-01-13 09:08:00,,0831.7,5.00,0.00,21.6,19.9,00.0,30.5,23.1,12.9,0000.5,0013.36,0018.82,0012.52
2023-01-13 09:09:00,,0831.7,4.99,0.00,21.5,19.8,00.0,30.5,23.1,12.9,0000.5,0013.26,0018.77,0012.44
2023-01-13 09:10:00,,0831.7,5.00,0.00,21.5,19.7,00.0,30.5,23.0,12.9,0000.0,0013.17,0018.93,0012.36
2023-01-13 09:11:00,,0831.7,4.99,0.00,21.5,19.6,00.0,30.5,23.0,12.9,0000.0,0013.13,0018.84,0012.36
2023-01-13 09:12:00,,0831.8,5.00,0.00,21.4,19.5,00.0,30.5,22.9,12.9,-000.1,0013.15,0018.91,0012.40
2023-01-13 09:13:00,,0831.8,5.01,0.00,21.4,19.4,00.0,30.4,22.9,12.9,-000.2,0013.11,0018.67,0012.38
2023-01-13 09:14:00,,0831.7,5.00,0.00,21.4,19.3,00.0,30.4,22.8,12.9,0000.4,0013.13,0018.70,0012.40
2023-01-13 09:15:00,,0831.8,5.01,0.00,21.3,19.3,00.0,30.4,22.8,12.9,0000.5,0013.16,0018.72,0012.44
2023-01-13 09:16:00,,0831.7,5.00,0.00,21.3,19.8,00.0,30.4,22.9,12.9,0000.5,0013.14,0018.86,0012.39
2023-01-13 09:17:00,,0831.7,5.00,0.00,21.4,21.1,00.0,30.3,23.2,12.8,0000.4,0013.09,0019.35,0012.32
2023-01-13 09:18:00,,0831.7,5.00,0.00,21.6,22.3,00.0,30.3,23.5,12.7,0000.6,0013.06,0019.52,0012.28
2023-01-13 09:19:00,,0831.8,4.99,0.00,21.7,22.2,00.0,30.4,23.6,12.6,0001.0,0012.95,0019.37,0012.18
2023-01-13 09:20:00,,0831.7,4.99,0.00,21.7,21.6,00.0,30.4,23.5,12.5,0001.5,0012.85,0019.36,0012.02
2023-01-13 09:21:00,,0831.7,5.00,0.00,21.7,21.2,00.0,30.5,23.4,12.6,0002.0,0012.68,0018.70,0011.86
2023-01-13 09:22:00,,0831.7,5.01,0.00,21.7,20.7,00.0,30.5,23.3,12.7,0002.0,0012.55,0018.53,0011.72
2023-01-13 09:23:00,,0831.7,5.00,0.00,21.6,20.4,00.0,30.5,23.2,12.7,0002.1,0012.45,0018.40,0011.62
2023-01-13 09:24:00,,0831.7,5.01,0.00,21.6,20.1,00.0,30.5,23.2,12.8,0002.5,0012.35,0018.45,0011.54
2023-01-13 09:25:00,,0831.7,4.99,0.00,21.6,19.9,00.0,30.5,23.1,12.8,0002.5,0012.31,0018.38,0011.50
2023-01-13 09:26:00,,0831.7,5.00,0.00,21.5,19.9,00.0,30.5,23.1,12.8,0002.8,0012.30,0018.31,0011.47
2023-01-13 09:27:00,,0831.7,5.00,0.00,21.5,19.8,00.0,30.5,23.1,12.8,0002.7,0012.30,0018.09,0011.48
2023-01-13 09:28:00,,0831.7,5.00,0.00,21.5,19.7,00.0,30.5,23.0,12.7,0002.6,0012.35,0017.52,0011.52
2023-01-13 09:29:00,,0831.7,5.01,0.00,21.4,19.6,00.0,30.5,22.9,12.7,0002.4,0012.39,0017.35,0011.57
2023-01-13 09:30:00,,0831.7,5.00,0.00,21.4,19.5,00.0,30.4,22.9,12.7,0002.7,0012.39,0017.11,0011.59
2023-01-13 09:31:00,,0831.7,5.00,0.00,21.4,19.4,00.0,30.4,22.8,12.6,0002.3,0012.38,0016.79,0011.66
2023-01-13 09:32:00,,0831.7,5.01,0.00,21.3,19.4,00.0,30.4,22.8,12.6,0002.0,0012.41,0016.76,0011.71
2023-01-13 09:33:00,,0831.7,5.00,0.00,21.3,19.4,00.0,30.4,22.8,12.7,0001.8,0012.43,0016.86,0011.74
2023-01-13 09:34:00,,0831.7,5.00,0.00,21.4,20.5,00.0,30.3,23.1,12.6,0002.2,0012.44,0017.34,0011.73
2023-01-13 09:35:00,,0831.7,5.00,0.00,21.5,21.8,00.0,30.3,23.4,12.5,0002.0,0012.42,0017.22,0011.74
2023-01-13 09:36:00,,0831.7,4.99,0.00,21.6,22.0,00.0,30.4,23.6,12.4,0001.9,0012.44,0017.27,0011.75
2023-01-13 09:37:00,,0831.7,5.01,0.00,21.7,21.5,00.0,30.4,23.5,12.3,0001.8,0012.48,0017.44,0011.77
2023-01-13 09:38:00,,0831.7,5.00,0.00,21.7,21.1,00.0,30.4,23.4,12.3,0002.1,0012.51,0017.42,0011.81
2023-01-13 09:39:00,,0831.7,5.01,0.00,21.7,20.7,00.0,30.5,23.4,12.3,0002.4,0012.57,0017.80,0011.87
2023-01-13 09:40:00,,0831.7,5.00,0.00,21.6,20.4,00.0,30.5,23.3,12.3,0002.3,0012.62,0017.93,0011.93
2023-01-13 09:41:00,,0831.7,5.00,0.00,21.6,20.2,00.0,30.5,23.2,12.3,0001.8,0012.67,0017.98,0011.97
2023-01-13 09:42:00,,0831.6,4.99,0.00,21.6,20.0,00.0,30.5,23.1,12.3,0001.6,0012.75,0018.12,0012.00
2023-01-13 09:43:00,,0831.6,5.01,0.00,21.6,19.8,00.0,30.5,23.1,12.3,0001.9,0012.83,0018.24,0012.05
2023-01-13 09:44:00,,0831.6,5.00,0.00,21.5,19.7,00.0,30.5,23.0,12.3,0002.0,0012.90,0018.24,0012.10
2023-01-13 09:45:00,,0831.6,5.00,0.00,21.5,19.5,00.0,30.5,22.9,12.3,0001.7,0012.98,0017.77,0012.16
2023-01-13 09:46:00,,0831.5,5.00,0.00,21.4,19.4,00.0,30.4,22.9,12.4,0001.6,0013.07,0017.64,0012.20
2023-01-13 09:47:00,,0831.5,5.00,0.00,21.4,19.4,00.0,30.4,22.8,12.4,0001.7,0013.12,0017.69,0012.26
2023-01-13 09:48:00,,0831.5,5.00,0.00,21.3,19.3,00.0,30.4,22.8,12.4,0001.4,0013.11,0017.53,0012.30
2023-01-13 09:49:00,,0831.6,5.00,0.00,21.3,19.7,00.0,30.3,22.8,12.3,0000.7,0013.14,0017.62,0012.33
2023-01-13 09:50:00,,0831.6,5.01,0.00,21.4,21.0,00.0,30.3,23.1,12.2,0000.3,0013.09,0017.45,0012.31
2023-01-13 09:51:00,,0831.6,5.01,0.00,21.5,22.3,00.0,30.3,23.5,12.0,0000.5,0013.08,0017.39,0012.28
2023-01-13 09:52:00,,0831.6,5.00,0.00,21.7,22.3,00.0,30.4,23.6,11.7,0000.6,0012.91,0017.25,0012.15
2023-01-13 09:53:00,,0831.5,4.99,0.00,21.7,21.8,00.0,30.4,23.6,11.8,0000.5,0012.78,0017.10,0012.05
2023-01-13 09:54:00,,0831.5,5.01,0.00,21.7,21.2,00.0,30.5,23.5,11.9,0000.6,0012.74,0017.26,0012.01
2023-01-13 09:55:00,,0831.6,5.00,0.00,21.7,20.8,00.0,30.5,23.4,12.0,0000.8,0012.74,0017.36,0012.00
2023-01-13 09:56:00,,0831.6,5.00,0.00,21.7,20.5,00.0,30.5,23.3,12.1,0000.9,0012.75,0018.19,0012.03
2023-01-13 09:57:00,,0831.5,4.99,0.00,21.6,20.2,00.0,30.5,23.2,12.2,0001.0,0012.80,0018.27,0012.08
2023-01-13 09:58:00,,0831.6,5.01,0.00,21.6,20.1,00.0,30.5,23.2,12.2,0000.9,0012.88,0018.39,0012.14
2023-01-13 09:59:00,,0831.6,5.00,0.00,21.6,19.9,00.0,30.5,23.1,12.2,0001.0,0013.02,0018.66,0012.22
